VIV321 MMUN-MMMY

Flight info

Callsign VIV321
Flight time 2h 15m
Altitude 34000
Route UDGUV2A UDGUV DCT MID DCT NOTEN UT37 SESNO UJ15E RETOS RETOS1A
Aircraft A321/M-SDE3FGHIRWY/LB1

Departure

Time 2026-05-03 23:00
Airport Cancún International Airport (MMUN)

Arrival

Time 2026-05-04 01:16
Airport Monterrey International Airport (MMMY)
Time Latitude Longitude Altitude Speed Heading
2026-05-03 22:23 21.04015 -86.87709 30 ft 0 kts 101°
2026-05-03 22:47 21.04018 -86.87728 29 ft 4 kts 101°
2026-05-03 22:47 21.04024 -86.87757 29 ft 3 kts 101°
2026-05-03 22:47 21.04028 -86.87778 29 ft 4 kts 101°
2026-05-03 22:48 21.04033 -86.87805 29 ft 3 kts 103°
2026-05-03 22:48 21.04035 -86.87809 29 ft 4 kts 58°
2026-05-03 22:48 21.04064 -86.87795 29 ft 3 kts 210°
2026-05-03 22:48 21.04077 -86.87787 29 ft 3 kts 214°
2026-05-03 22:49 21.04079 -86.87785 29 ft 0 kts 214°
2026-05-03 22:52 21.04068 -86.87793 29 ft 4 kts 213°
2026-05-03 22:53 21.04043 -86.87810 29 ft 5 kts 212°
2026-05-03 22:53 21.04004 -86.87837 30 ft 7 kts 215°
2026-05-03 22:53 21.03979 -86.87881 30 ft 7 kts 262°
2026-05-03 22:53 21.03996 -86.87931 30 ft 7 kts 301°
2026-05-03 22:54 21.04027 -86.87978 30 ft 8 kts 305°
2026-05-03 22:54 21.04059 -86.88028 30 ft 9 kts 304°
2026-05-03 22:54 21.04094 -86.88084 30 ft 9 kts 303°
2026-05-03 22:54 21.04132 -86.88146 30 ft 10 kts 303°
2026-05-03 22:55 21.04171 -86.88210 30 ft 11 kts 303°
2026-05-03 22:55 21.04212 -86.88278 30 ft 11 kts 303°
2026-05-03 22:55 21.04255 -86.88347 31 ft 11 kts 304°
2026-05-03 22:55 21.04302 -86.88419 30 ft 12 kts 304°
2026-05-03 22:56 21.04349 -86.88496 31 ft 13 kts 302°
2026-05-03 22:56 21.04396 -86.88576 31 ft 13 kts 302°
2026-05-03 22:56 21.04447 -86.88657 31 ft 14 kts 304°
2026-05-03 22:56 21.04502 -86.88743 30 ft 14 kts 304°
2026-05-03 22:57 21.04561 -86.88832 30 ft 15 kts 305°
2026-05-03 22:57 21.04619 -86.88921 30 ft 14 kts 304°
2026-05-03 22:57 21.04628 -86.89004 30 ft 12 kts 237°
2026-05-03 22:57 21.04611 -86.89024 31 ft 0 kts 220°
2026-05-03 22:58 21.04609 -86.89026 31 ft 3 kts 219°
2026-05-03 22:58 21.04581 -86.89049 32 ft 6 kts 216°
2026-05-03 22:58 21.04537 -86.89074 32 ft 5 kts 174°
2026-05-03 22:59 21.04498 -86.89040 31 ft 9 kts 131°
2026-05-03 22:59 21.04407 -86.88898 32 ft 53 kts 123°
2026-05-03 22:59 21.04077 -86.88364 35 ft 117 kts 124°
2026-05-03 22:59 21.03536 -86.87511 37 ft 165 kts 123°
2026-05-03 23:00 21.02832 -86.86383 318 ft 182 kts 124°
2026-05-03 23:00 21.02172 -86.85331 1091 ft 172 kts 124°
2026-05-03 23:00 21.01502 -86.84412 1708 ft 174 kts 141°
2026-05-03 23:00 21.00297 -86.84067 1990 ft 194 kts 188°
2026-05-03 23:01 20.98994 -86.84644 2146 ft 211 kts 209°
2026-05-03 23:01 20.97772 -86.85549 2294 ft 225 kts 221°
2026-05-03 23:01 20.96938 -86.86961 2869 ft 214 kts 251°
2026-05-03 23:01 20.96626 -86.88469 3442 ft 207 kts 257°
2026-05-03 23:02 20.96352 -86.89968 3940 ft 204 kts 258°
2026-05-03 23:02 20.96087 -86.91452 4375 ft 204 kts 258°
2026-05-03 23:02 20.95823 -86.92946 4782 ft 205 kts 258°
2026-05-03 23:02 20.95559 -86.94440 5191 ft 205 kts 258°
2026-05-03 23:03 20.95290 -86.95959 5474 ft 213 kts 259°
2026-05-03 23:03 20.95003 -86.97575 5608 ft 230 kts 259°
2026-05-03 23:03 20.94691 -86.99326 5701 ft 251 kts 258°
2026-05-03 23:03 20.94351 -87.01238 5895 ft 271 kts 259°
2026-05-03 23:04 20.93994 -87.03250 6392 ft 278 kts 259°
2026-05-03 23:04 20.93632 -87.05300 6979 ft 281 kts 259°
2026-05-03 23:04 20.93271 -87.07355 7563 ft 283 kts 259°
2026-05-03 23:04 20.92904 -87.09455 8148 ft 286 kts 259°
2026-05-03 23:05 20.92534 -87.11549 8702 ft 289 kts 258°
2026-05-03 23:05 20.92159 -87.13663 9240 ft 291 kts 258°
2026-05-03 23:05 20.91777 -87.15810 9784 ft 293 kts 259°
2026-05-03 23:05 20.91392 -87.17970 10161 ft 303 kts 259°
2026-05-03 23:06 20.90988 -87.20239 10287 ft 320 kts 259°
2026-05-03 23:06 20.90567 -87.22613 10632 ft 328 kts 259°
2026-05-03 23:06 20.90137 -87.25028 11142 ft 331 kts 259°
2026-05-03 23:06 20.89703 -87.27453 11695 ft 333 kts 259°
2026-05-03 23:07 20.89265 -87.29889 12277 ft 332 kts 260°
2026-05-03 23:07 20.88847 -87.32226 13425 ft 310 kts 260°
2026-05-03 23:07 20.88456 -87.34414 14531 ft 292 kts 260°
2026-05-03 23:07 20.88080 -87.36517 15222 ft 287 kts 260°
2026-05-03 23:08 20.87704 -87.38619 15748 ft 288 kts 260°
2026-05-03 23:08 20.87328 -87.40721 16221 ft 289 kts 260°
2026-05-03 23:08 20.86951 -87.42842 16681 ft 291 kts 260°
2026-05-03 23:08 20.86570 -87.44969 17126 ft 292 kts 259°
2026-05-03 23:09 20.86182 -87.47126 17443 ft 299 kts 259°
2026-05-03 23:09 20.85787 -87.49338 17778 ft 305 kts 259°
2026-05-03 23:09 20.85385 -87.51583 18105 ft 311 kts 259°
2026-05-03 23:09 20.84973 -87.53878 18435 ft 316 kts 259°
2026-05-03 23:10 20.84553 -87.56203 18762 ft 321 kts 259°
2026-05-03 23:10 20.84127 -87.58563 19088 ft 326 kts 259°
2026-05-03 23:10 20.83692 -87.60975 19300 ft 335 kts 259°
2026-05-03 23:10 20.83246 -87.63460 19429 ft 346 kts 259°
2026-05-03 23:11 20.82790 -87.65990 19557 ft 356 kts 259°
2026-05-03 23:11 20.82315 -87.68626 19754 ft 364 kts 259°
2026-05-03 23:11 20.81834 -87.71297 19939 ft 367 kts 259°
2026-05-03 23:11 20.81348 -87.73978 19970 ft 368 kts 259°
2026-05-03 23:12 20.80895 -87.76674 19968 ft 368 kts 264°
2026-05-03 23:12 20.80852 -87.79408 19995 ft 373 kts 274°
2026-05-03 23:12 20.81069 -87.82209 20123 ft 383 kts 274°
2026-05-03 23:12 20.81288 -87.85091 20255 ft 394 kts 274°
2026-05-03 23:13 20.81509 -87.88040 20381 ft 403 kts 274°
2026-05-03 23:13 20.81732 -87.91057 20600 ft 409 kts 274°
2026-05-03 23:13 20.81956 -87.94100 20917 ft 412 kts 274°
2026-05-03 23:13 20.82181 -87.97158 21256 ft 413 kts 274°
2026-05-03 23:14 20.82406 -88.00229 21576 ft 415 kts 274°
2026-05-03 23:14 20.82633 -88.03314 21921 ft 417 kts 274°
2026-05-03 23:14 20.82862 -88.06404 22248 ft 418 kts 274°
2026-05-03 23:14 20.83091 -88.09513 22572 ft 420 kts 274°
2026-05-03 23:15 20.83319 -88.12631 22885 ft 421 kts 274°
2026-05-03 23:15 20.83544 -88.15749 23186 ft 423 kts 274°
2026-05-03 23:15 20.83770 -88.18893 23493 ft 424 kts 274°
2026-05-03 23:15 20.83996 -88.22038 23793 ft 425 kts 274°
2026-05-03 23:16 20.84228 -88.25194 24091 ft 427 kts 274°
2026-05-03 23:16 20.84460 -88.28364 24358 ft 428 kts 274°
2026-05-03 23:16 20.84691 -88.31539 24629 ft 429 kts 274°
2026-05-03 23:16 20.84921 -88.34733 24906 ft 431 kts 274°
2026-05-03 23:17 20.85147 -88.37926 25178 ft 432 kts 274°
2026-05-03 23:17 20.85299 -88.40057 25359 ft 433 kts 274°
2026-05-03 23:17 20.85530 -88.43269 25612 ft 434 kts 274°
2026-05-03 23:17 20.85762 -88.46490 25875 ft 436 kts 274°
2026-05-03 23:18 20.86070 -88.50787 26196 ft 437 kts 274°
2026-05-03 23:18 20.86224 -88.52978 26354 ft 437 kts 274°
2026-05-03 23:18 20.86454 -88.56231 26575 ft 439 kts 274°
2026-05-03 23:18 20.86682 -88.59485 26819 ft 440 kts 274°
2026-05-03 23:19 20.86909 -88.62756 27063 ft 441 kts 274°
2026-05-03 23:19 20.87136 -88.66028 27307 ft 442 kts 274°
2026-05-03 23:19 20.87364 -88.69312 27561 ft 443 kts 274°
2026-05-03 23:19 20.87594 -88.72604 27794 ft 445 kts 274°
2026-05-03 23:20 20.87826 -88.75908 28091 ft 444 kts 273°
2026-05-03 23:20 20.88054 -88.79196 28447 ft 443 kts 273°
2026-05-03 23:20 20.88280 -88.82465 28792 ft 441 kts 273°
2026-05-03 23:20 20.88507 -88.85728 29117 ft 440 kts 273°
2026-05-03 23:21 20.88732 -88.88990 29440 ft 438 kts 273°
2026-05-03 23:21 20.88954 -88.92232 29766 ft 437 kts 273°
2026-05-03 23:21 20.89174 -88.95463 30090 ft 435 kts 273°
2026-05-03 23:21 20.89392 -88.98685 30404 ft 434 kts 273°
2026-05-03 23:22 20.89818 -89.05067 31014 ft 431 kts 273°
2026-05-03 23:22 20.90033 -89.08259 31302 ft 430 kts 273°
2026-05-03 23:22 20.90248 -89.11438 31613 ft 428 kts 273°
2026-05-03 23:23 20.90462 -89.14607 31917 ft 427 kts 274°
2026-05-03 23:23 20.90674 -89.17769 32204 ft 426 kts 274°
2026-05-03 23:23 20.90889 -89.20960 32493 ft 424 kts 274°
2026-05-03 23:23 20.91098 -89.24060 32763 ft 423 kts 274°
2026-05-03 23:24 20.91309 -89.27190 33039 ft 422 kts 274°
2026-05-03 23:24 20.91514 -89.30320 33305 ft 421 kts 274°
2026-05-03 23:24 20.91716 -89.33435 33571 ft 420 kts 274°
2026-05-03 23:24 20.91920 -89.36545 33824 ft 419 kts 274°
2026-05-03 23:25 20.92123 -89.39657 33961 ft 418 kts 274°
2026-05-03 23:25 20.92325 -89.42768 33980 ft 418 kts 274°
2026-05-03 23:25 20.92733 -89.48969 33980 ft 418 kts 274°
2026-05-03 23:26 20.93140 -89.55133 33980 ft 418 kts 274°
2026-05-03 23:26 20.93535 -89.61367 33980 ft 418 kts 274°
2026-05-03 23:27 20.94760 -89.67378 33981 ft 419 kts 291°
2026-05-03 23:27 20.97445 -89.72933 33985 ft 421 kts 296°
2026-05-03 23:28 21.00188 -89.78471 33991 ft 421 kts 295°
2026-05-03 23:28 21.02917 -89.84030 33991 ft 421 kts 295°
2026-05-03 23:29 21.05642 -89.89572 33993 ft 421 kts 295°
2026-05-03 23:29 21.08373 -89.95118 33997 ft 421 kts 295°
2026-05-03 23:30 21.11106 -90.00656 33999 ft 421 kts 295°
2026-05-03 23:30 21.13833 -90.06214 33997 ft 421 kts 295°
2026-05-03 23:31 21.16560 -90.11768 33998 ft 421 kts 295°
2026-05-03 23:31 21.19278 -90.17286 33999 ft 421 kts 295°
2026-05-03 23:32 21.22006 -90.22846 33998 ft 421 kts 295°
2026-05-03 23:32 21.24726 -90.28411 33997 ft 421 kts 295°
2026-05-03 23:33 21.27445 -90.33984 33998 ft 421 kts 295°
2026-05-03 23:33 21.30167 -90.39550 33999 ft 421 kts 295°
2026-05-03 23:34 21.32887 -90.45115 33996 ft 421 kts 295°
2026-05-03 23:34 21.35607 -90.50688 33998 ft 421 kts 295°
2026-05-03 23:35 21.38326 -90.56259 34000 ft 421 kts 295°
2026-05-03 23:35 21.41015 -90.61794 34003 ft 421 kts 295°
2026-05-03 23:36 21.43717 -90.67370 34004 ft 421 kts 295°
2026-05-03 23:36 21.46432 -90.72947 34006 ft 421 kts 295°
2026-05-03 23:37 21.49139 -90.78518 34007 ft 421 kts 295°
2026-05-03 23:37 21.51844 -90.84110 34005 ft 421 kts 295°
2026-05-03 23:38 21.54549 -90.89697 34010 ft 421 kts 295°
2026-05-03 23:38 21.57250 -90.95284 34013 ft 422 kts 295°
2026-05-03 23:39 21.59949 -91.00875 34015 ft 421 kts 295°
2026-05-03 23:39 21.62652 -91.06477 34016 ft 421 kts 295°
2026-05-03 23:40 21.65328 -91.12031 34018 ft 421 kts 295°
2026-05-03 23:40 21.68024 -91.17627 34017 ft 421 kts 295°
2026-05-03 23:41 21.70722 -91.23225 34016 ft 421 kts 295°
2026-05-03 23:41 21.73415 -91.28830 34014 ft 421 kts 295°
2026-05-03 23:42 21.76099 -91.34430 34021 ft 421 kts 295°
2026-05-03 23:42 21.78787 -91.40041 34024 ft 421 kts 295°
2026-05-03 23:43 21.81479 -91.45640 34024 ft 421 kts 295°
2026-05-03 23:43 21.84146 -91.51216 34022 ft 421 kts 295°
2026-05-03 23:44 21.86814 -91.56816 34028 ft 421 kts 295°
2026-05-03 23:44 21.89490 -91.62424 34030 ft 421 kts 295°
2026-05-03 23:45 21.92160 -91.68034 34030 ft 421 kts 295°
2026-05-03 23:45 21.94836 -91.73638 34028 ft 421 kts 295°
2026-05-03 23:46 21.97514 -91.79254 34045 ft 420 kts 295°
2026-05-03 23:46 22.00177 -91.84856 34040 ft 420 kts 295°
2026-05-03 23:47 22.02833 -91.90457 34043 ft 419 kts 294°
2026-05-03 23:47 22.05464 -91.96022 34041 ft 419 kts 295°
2026-05-03 23:48 22.08118 -92.01610 34040 ft 419 kts 295°
2026-05-03 23:48 22.10773 -92.07202 34030 ft 419 kts 295°
2026-05-03 23:49 22.13418 -92.12799 34042 ft 419 kts 294°
2026-05-03 23:49 22.16050 -92.18397 34039 ft 419 kts 295°
2026-05-03 23:50 22.18246 -92.23053 34046 ft 419 kts 295°
2026-05-03 23:50 22.21339 -92.29599 34047 ft 418 kts 294°
2026-05-03 23:51 22.23969 -92.35197 34044 ft 418 kts 294°
2026-05-03 23:51 22.26592 -92.40786 34047 ft 417 kts 294°
2026-05-03 23:52 22.29209 -92.46338 34051 ft 417 kts 294°
2026-05-03 23:52 22.31832 -92.51931 34053 ft 417 kts 294°
2026-05-03 23:53 22.34444 -92.57519 34054 ft 416 kts 294°
2026-05-03 23:53 22.37057 -92.63106 34051 ft 416 kts 294°
2026-05-03 23:54 22.39670 -92.68686 34052 ft 416 kts 294°
2026-05-03 23:54 22.42280 -92.74261 34055 ft 415 kts 294°
2026-05-03 23:55 22.44880 -92.79846 34054 ft 415 kts 294°
2026-05-03 23:55 22.47475 -92.85418 34055 ft 414 kts 294°
2026-05-03 23:56 22.50052 -92.90945 34062 ft 414 kts 294°
2026-05-03 23:56 22.52641 -92.96508 34065 ft 413 kts 294°
2026-05-03 23:57 22.55220 -93.02064 34066 ft 413 kts 294°
2026-05-03 23:57 22.57793 -93.07626 34067 ft 413 kts 294°
2026-05-03 23:58 22.60372 -93.13193 34069 ft 414 kts 294°
2026-05-03 23:58 22.62951 -93.18750 34074 ft 413 kts 294°
2026-05-03 23:59 22.65529 -93.24321 34078 ft 413 kts 294°
2026-05-03 23:59 22.68093 -93.29896 34080 ft 414 kts 294°
2026-05-04 00:00 22.70661 -93.35477 34074 ft 413 kts 294°
2026-05-04 00:00 22.73235 -93.41049 34075 ft 414 kts 294°
2026-05-04 00:01 22.75810 -93.46615 34088 ft 414 kts 294°
2026-05-04 00:01 22.78377 -93.52194 34093 ft 414 kts 294°
2026-05-04 00:02 22.80939 -93.57780 34100 ft 414 kts 293°
2026-05-04 00:02 22.83496 -93.63370 34101 ft 414 kts 294°
2026-05-04 00:03 22.86045 -93.68927 34104 ft 414 kts 294°
2026-05-04 00:03 22.88603 -93.74504 34106 ft 413 kts 294°
2026-05-04 00:04 22.91152 -93.80077 34109 ft 412 kts 293°
2026-05-04 00:04 22.93276 -93.84739 34112 ft 412 kts 294°
2026-05-04 00:05 22.95821 -93.90315 34114 ft 412 kts 294°
2026-05-04 00:05 22.98357 -93.95887 34115 ft 411 kts 294°
2026-05-04 00:06 23.00892 -94.01443 34113 ft 410 kts 294°
2026-05-04 00:06 23.03401 -94.06957 34113 ft 410 kts 294°
2026-05-04 00:07 23.05916 -94.12505 34112 ft 409 kts 294°
2026-05-04 00:07 23.08424 -94.18036 34114 ft 408 kts 295°
2026-05-04 00:08 23.10941 -94.23588 34116 ft 406 kts 296°
2026-05-04 00:08 23.13434 -94.29094 34117 ft 406 kts 295°
2026-05-04 00:09 23.15904 -94.34555 34116 ft 405 kts 295°
2026-05-04 00:09 23.18381 -94.40056 34116 ft 404 kts 295°
2026-05-04 00:10 23.20849 -94.45539 34116 ft 404 kts 295°
2026-05-04 00:10 23.23321 -94.51029 34117 ft 404 kts 295°
2026-05-04 00:11 23.25794 -94.56507 34117 ft 404 kts 295°
2026-05-04 00:11 23.28267 -94.62005 34121 ft 404 kts 295°
2026-05-04 00:12 23.30580 -94.67568 34124 ft 404 kts 292°
2026-05-04 00:12 23.32715 -94.73228 34123 ft 404 kts 292°
2026-05-04 00:13 23.34841 -94.78880 34121 ft 404 kts 292°
2026-05-04 00:13 23.37005 -94.84517 34120 ft 403 kts 292°
2026-05-04 00:14 23.39190 -94.90135 34118 ft 403 kts 292°
2026-05-04 00:14 23.41368 -94.95763 34117 ft 403 kts 292°
2026-05-04 00:15 23.43525 -95.01362 34117 ft 403 kts 292°
2026-05-04 00:15 23.45690 -95.06989 34116 ft 403 kts 292°
2026-05-04 00:16 23.47853 -95.12632 34116 ft 403 kts 292°
2026-05-04 00:16 23.50012 -95.18264 34117 ft 403 kts 292°
2026-05-04 00:17 23.52175 -95.23911 34116 ft 403 kts 292°
2026-05-04 00:17 23.54336 -95.29546 34117 ft 403 kts 292°
2026-05-04 00:18 23.56496 -95.35180 34116 ft 403 kts 292°
2026-05-04 00:18 23.58655 -95.40822 34115 ft 403 kts 292°
2026-05-04 00:19 23.60803 -95.46465 34117 ft 403 kts 292°
2026-05-04 00:19 23.62934 -95.52091 34120 ft 403 kts 292°
2026-05-04 00:20 23.65098 -95.57769 34116 ft 403 kts 292°
2026-05-04 00:20 23.67225 -95.63375 34115 ft 402 kts 292°
2026-05-04 00:21 23.69364 -95.69020 34115 ft 403 kts 292°
2026-05-04 00:21 23.71507 -95.74664 34115 ft 402 kts 292°
2026-05-04 00:22 23.73644 -95.80306 34115 ft 403 kts 292°
2026-05-04 00:22 23.75783 -95.85958 34116 ft 403 kts 292°
2026-05-04 00:23 23.77914 -95.91604 34116 ft 403 kts 292°
2026-05-04 00:23 23.80055 -95.97262 34116 ft 402 kts 292°
2026-05-04 00:24 23.82183 -96.02912 34112 ft 402 kts 292°
2026-05-04 00:24 23.84290 -96.08528 34112 ft 402 kts 292°
2026-05-04 00:25 23.86410 -96.14180 34115 ft 402 kts 292°
2026-05-04 00:25 23.88538 -96.19836 34114 ft 402 kts 292°
2026-05-04 00:26 23.90657 -96.25493 34112 ft 402 kts 292°
2026-05-04 00:26 23.92775 -96.31157 34114 ft 403 kts 292°
2026-05-04 00:27 23.94894 -96.36830 34117 ft 402 kts 292°
2026-05-04 00:27 23.97007 -96.42494 34117 ft 403 kts 292°
2026-05-04 00:28 23.99132 -96.48171 34115 ft 403 kts 292°
2026-05-04 00:28 24.01231 -96.53812 34118 ft 403 kts 292°
2026-05-04 00:29 24.03341 -96.59490 34122 ft 403 kts 292°
2026-05-04 00:29 24.05448 -96.65160 34123 ft 402 kts 292°
2026-05-04 00:30 24.07550 -96.70842 34122 ft 402 kts 292°
2026-05-04 00:30 24.09650 -96.76508 34122 ft 402 kts 292°
2026-05-04 00:31 24.11747 -96.82183 34123 ft 402 kts 292°
2026-05-04 00:31 24.13848 -96.87859 34124 ft 402 kts 292°
2026-05-04 00:32 24.15931 -96.93534 34123 ft 402 kts 292°
2026-05-04 00:32 24.18014 -96.99207 34121 ft 401 kts 292°
2026-05-04 00:33 24.21147 -97.07717 34118 ft 401 kts 292°
2026-05-04 00:34 24.23218 -97.13389 34117 ft 401 kts 292°
2026-05-04 00:34 24.25293 -97.19064 34117 ft 401 kts 292°
2026-05-04 00:35 24.27367 -97.24745 34117 ft 401 kts 292°
2026-05-04 00:35 24.29427 -97.30391 34117 ft 401 kts 292°
2026-05-04 00:36 24.31503 -97.36075 34117 ft 401 kts 292°
2026-05-04 00:36 24.33575 -97.41768 34115 ft 402 kts 292°
2026-05-04 00:37 24.35650 -97.47465 34117 ft 402 kts 292°
2026-05-04 00:37 24.37726 -97.53157 34119 ft 402 kts 292°
2026-05-04 00:38 24.39781 -97.58827 34118 ft 402 kts 292°
2026-05-04 00:38 24.41844 -97.64524 34120 ft 402 kts 292°
2026-05-04 00:39 24.43912 -97.70228 34119 ft 402 kts 292°
2026-05-04 00:39 24.45981 -97.75936 34115 ft 402 kts 292°
2026-05-04 00:40 24.48046 -97.81641 34116 ft 402 kts 292°
2026-05-04 00:40 24.50109 -97.87360 34117 ft 402 kts 292°
2026-05-04 00:41 24.52167 -97.93083 34115 ft 402 kts 292°
2026-05-04 00:41 24.54207 -97.98752 34113 ft 402 kts 292°
2026-05-04 00:42 24.56261 -98.04467 34106 ft 402 kts 292°
2026-05-04 00:42 24.58311 -98.10186 34105 ft 402 kts 292°
2026-05-04 00:43 24.60357 -98.15907 34105 ft 402 kts 292°
2026-05-04 00:43 24.62402 -98.21628 34105 ft 403 kts 292°
2026-05-04 00:44 24.64454 -98.27367 34108 ft 403 kts 292°
2026-05-04 00:44 24.66495 -98.33092 34112 ft 402 kts 292°
2026-05-04 00:45 24.68530 -98.38825 34108 ft 402 kts 292°
2026-05-04 00:45 24.70553 -98.44524 34112 ft 403 kts 292°
2026-05-04 00:46 24.72588 -98.50256 34113 ft 402 kts 292°
2026-05-04 00:46 24.74621 -98.55987 34111 ft 402 kts 292°
2026-05-04 00:47 24.76649 -98.61716 34111 ft 402 kts 292°
2026-05-04 00:47 24.78673 -98.67441 34110 ft 401 kts 292°
2026-05-04 00:48 24.80696 -98.73157 34110 ft 401 kts 292°
2026-05-04 00:48 24.82721 -98.78891 34111 ft 401 kts 292°
2026-05-04 00:49 24.84740 -98.84619 34110 ft 401 kts 292°
2026-05-04 00:49 24.86753 -98.90356 34113 ft 401 kts 292°
2026-05-04 00:50 24.88753 -98.96049 34112 ft 402 kts 292°
2026-05-04 00:50 24.90769 -99.01784 34109 ft 402 kts 292°
2026-05-04 00:51 24.92784 -99.07532 34104 ft 402 kts 293°
2026-05-04 00:51 24.94022 -99.10293 34000 ft 401 kts 301°
2026-05-04 00:51 24.95077 -99.12023 33390 ft 406 kts 307°
2026-05-04 00:51 24.96984 -99.14373 32330 ft 416 kts 311°
2026-05-04 00:52 24.98987 -99.16711 31269 ft 424 kts 311°
2026-05-04 00:52 25.01024 -99.19094 30215 ft 430 kts 311°
2026-05-04 00:52 25.03057 -99.21483 29297 ft 434 kts 311°
2026-05-04 00:52 25.05119 -99.23918 28468 ft 435 kts 311°
2026-05-04 00:53 25.07179 -99.26361 27691 ft 434 kts 310°
2026-05-04 00:53 25.09230 -99.28800 27015 ft 432 kts 310°
2026-05-04 00:53 25.11256 -99.31211 26374 ft 428 kts 310°
2026-05-04 00:53 25.13277 -99.33620 25707 ft 424 kts 310°
2026-05-04 00:54 25.15261 -99.35981 24745 ft 417 kts 310°
2026-05-04 00:54 25.17223 -99.38315 23736 ft 412 kts 310°
2026-05-04 00:54 25.19154 -99.40610 23079 ft 399 kts 311°
2026-05-04 00:54 25.21195 -99.42555 22861 ft 382 kts 321°
2026-05-04 00:55 25.23498 -99.43951 22489 ft 373 kts 330°
2026-05-04 00:55 25.25840 -99.45155 22041 ft 371 kts 330°
2026-05-04 00:55 25.28185 -99.46362 21521 ft 370 kts 330°
2026-05-04 00:55 25.30515 -99.47565 21028 ft 368 kts 330°
2026-05-04 00:56 25.32831 -99.48767 20494 ft 368 kts 330°
2026-05-04 00:56 25.35133 -99.49967 20016 ft 365 kts 330°
2026-05-04 00:56 25.37423 -99.51162 19584 ft 361 kts 330°
2026-05-04 00:56 25.39702 -99.52349 19023 ft 361 kts 330°
2026-05-04 00:57 25.41958 -99.53521 18504 ft 359 kts 330°
2026-05-04 00:57 25.44223 -99.54697 18049 ft 355 kts 330°
2026-05-04 00:57 25.46452 -99.55849 17584 ft 352 kts 330°
2026-05-04 00:57 25.48632 -99.56977 17100 ft 349 kts 331°
2026-05-04 00:58 25.50810 -99.58106 16907 ft 343 kts 331°
2026-05-04 00:58 25.52975 -99.59230 16837 ft 345 kts 331°
2026-05-04 00:58 25.55143 -99.60360 16759 ft 344 kts 331°
2026-05-04 00:58 25.57316 -99.61492 16626 ft 345 kts 330°
2026-05-04 00:59 25.59486 -99.62623 16399 ft 344 kts 331°
2026-05-04 00:59 25.61646 -99.63746 16519 ft 345 kts 331°
2026-05-04 00:59 25.63820 -99.64878 16517 ft 345 kts 331°
2026-05-04 00:59 25.65999 -99.66012 16517 ft 345 kts 331°
2026-05-04 01:00 25.68173 -99.67144 16517 ft 345 kts 330°
2026-05-04 01:00 25.70344 -99.68275 16518 ft 345 kts 330°
2026-05-04 01:00 25.72515 -99.69406 16515 ft 342 kts 330°
2026-05-04 01:00 25.74620 -99.70497 16513 ft 325 kts 331°
2026-05-04 01:01 25.76561 -99.71637 16514 ft 307 kts 321°
2026-05-04 01:01 25.78140 -99.73181 16470 ft 301 kts 308°
2026-05-04 01:01 25.79332 -99.75062 16324 ft 297 kts 300°
2026-05-04 01:01 25.80446 -99.77030 16186 ft 297 kts 300°
2026-05-04 01:02 25.81518 -99.78906 15862 ft 297 kts 300°
2026-05-04 01:02 25.82536 -99.80679 15515 ft 295 kts 301°
2026-05-04 01:02 25.83637 -99.82591 15139 ft 294 kts 301°
2026-05-04 01:02 25.84735 -99.84498 14755 ft 293 kts 301°
2026-05-04 01:03 25.85829 -99.86400 14386 ft 292 kts 301°
2026-05-04 01:03 25.86919 -99.88297 14014 ft 291 kts 301°
2026-05-04 01:03 25.88002 -99.90183 13626 ft 286 kts 300°
2026-05-04 01:03 25.89054 -99.92021 13254 ft 279 kts 300°
2026-05-04 01:04 25.90083 -99.93823 12879 ft 275 kts 301°
2026-05-04 01:04 25.91111 -99.95621 12502 ft 275 kts 301°
2026-05-04 01:04 25.92138 -99.97417 12102 ft 276 kts 301°
2026-05-04 01:04 25.93143 -99.99178 11651 ft 272 kts 301°
2026-05-04 01:05 25.94160 -100.00961 11199 ft 275 kts 301°
2026-05-04 01:05 25.95190 -100.02767 10745 ft 278 kts 301°
2026-05-04 01:05 25.96247 -100.04617 10288 ft 282 kts 301°
2026-05-04 01:05 25.97303 -100.06467 9837 ft 285 kts 301°
2026-05-04 01:06 25.98372 -100.08339 9388 ft 288 kts 301°
2026-05-04 01:06 25.99438 -100.10205 8936 ft 292 kts 301°
2026-05-04 01:06 26.00530 -100.12122 8486 ft 294 kts 302°
2026-05-04 01:06 26.01629 -100.14056 8031 ft 297 kts 302°
2026-05-04 01:07 26.02734 -100.15999 7580 ft 300 kts 302°
2026-05-04 01:07 26.03857 -100.17971 7121 ft 303 kts 301°
2026-05-04 01:07 26.04712 -100.20078 6622 ft 296 kts 276°
2026-05-04 01:07 26.04522 -100.22254 6118 ft 277 kts 242°
2026-05-04 01:08 26.03384 -100.23864 5620 ft 259 kts 214°
2026-05-04 01:08 26.01899 -100.24899 5162 ft 245 kts 204°
2026-05-04 01:08 26.00421 -100.25694 4947 ft 228 kts 201°
2026-05-04 01:08 25.99002 -100.26443 4828 ft 224 kts 202°
2026-05-04 01:09 25.97616 -100.27237 4812 ft 224 kts 205°
2026-05-04 01:09 25.96251 -100.28080 4819 ft 225 kts 206°
2026-05-04 01:09 25.94889 -100.28942 4816 ft 225 kts 206°
2026-05-04 01:09 25.93573 -100.29783 4831 ft 207 kts 206°
2026-05-04 01:10 25.92395 -100.30540 4803 ft 185 kts 205°
2026-05-04 01:10 25.91289 -100.31124 4810 ft 170 kts 189°
2026-05-04 01:10 25.90139 -100.31165 4815 ft 164 kts 165°
2026-05-04 01:10 25.89093 -100.30687 4707 ft 162 kts 143°
2026-05-04 01:11 25.88336 -100.29798 4589 ft 159 kts 121°
2026-05-04 01:11 25.87763 -100.28741 4549 ft 159 kts 122°
2026-05-04 01:11 25.87193 -100.27711 4503 ft 159 kts 122°
2026-05-04 01:11 25.86614 -100.26663 4346 ft 159 kts 122°
2026-05-04 01:12 25.86039 -100.25620 4170 ft 158 kts 121°
2026-05-04 01:12 25.85470 -100.24586 3963 ft 156 kts 122°
2026-05-04 01:12 25.84901 -100.23545 3770 ft 156 kts 121°
2026-05-04 01:12 25.84358 -100.22554 3567 ft 150 kts 121°
2026-05-04 01:13 25.83818 -100.21575 3374 ft 148 kts 121°
2026-05-04 01:13 25.83284 -100.20603 3179 ft 146 kts 120°
2026-05-04 01:13 25.82757 -100.19639 2976 ft 146 kts 121°
2026-05-04 01:13 25.82232 -100.18680 2777 ft 145 kts 121°
2026-05-04 01:14 25.81704 -100.17719 2575 ft 146 kts 122°
2026-05-04 01:14 25.81178 -100.16757 2378 ft 145 kts 123°
2026-05-04 01:14 25.80654 -100.15809 2189 ft 144 kts 124°
2026-05-04 01:14 25.80143 -100.14844 2001 ft 145 kts 121°
2026-05-04 01:15 25.79634 -100.13883 1777 ft 145 kts 123°
2026-05-04 01:15 25.79101 -100.12933 1592 ft 145 kts 123°
2026-05-04 01:15 25.78576 -100.11989 1376 ft 141 kts 124°
2026-05-04 01:15 25.78083 -100.11124 1284 ft 113 kts 121°
2026-05-04 01:16 25.77838 -100.10665 1280 ft 25 kts 121°
2026-05-04 01:16 25.77807 -100.10610 1280 ft 10 kts 122°
2026-05-04 01:16 25.77765 -100.10539 1279 ft 12 kts 122°
2026-05-04 01:16 25.77724 -100.10454 1278 ft 13 kts 120°
2026-05-04 01:17 25.77672 -100.10361 1279 ft 15 kts 123°
2026-05-04 01:17 25.77633 -100.10296 1278 ft 3 kts 23°
2026-05-04 01:17 25.77653 -100.10319 1277 ft 5 kts 288°
2026-05-04 01:17 25.77678 -100.10383 1278 ft 13 kts 292°
2026-05-04 01:18 25.77733 -100.10498 1280 ft 21 kts 301°
2026-05-04 01:18 25.77814 -100.10635 1280 ft 21 kts 302°
2026-05-04 01:18 25.77856 -100.10788 1280 ft 21 kts 274°
2026-05-04 01:18 25.77859 -100.10953 1282 ft 21 kts 271°
2026-05-04 01:19 25.77868 -100.11118 1281 ft 22 kts 285°
2026-05-04 01:19 25.77940 -100.11267 1282 ft 22 kts 302°
2026-05-04 01:19 25.78026 -100.11415 1282 ft 23 kts 302°
2026-05-04 01:19 25.78111 -100.11561 1283 ft 23 kts 303°
2026-05-04 01:20 25.78188 -100.11706 1282 ft 17 kts 301°
2026-05-04 01:20 25.78241 -100.11811 1281 ft 11 kts 277°
2026-05-04 01:20 25.78194 -100.11861 1282 ft 10 kts 214°
2026-05-04 01:20 25.78136 -100.11857 1281 ft 8 kts 124°
2026-05-04 01:21 25.78107 -100.11831 1281 ft 3 kts 172°
2026-05-04 01:21 25.78088 -100.11836 1281 ft 3 kts 204°
2026-05-04 01:21 25.78068 -100.11849 1281 ft 3 kts 210°
2026-05-04 01:21 25.78064 -100.11852 1281 ft 0 kts 210°